Location: Britannia Beach
(45.3521°N, 62.9901°W)
Time: 18:18:27
(UTC+00:00)

X-37B - Pass Details

Date: 08 August 2021
Orbit: 381 x 393 km, 45.0° (Epoch: 29 August)

Event Time Altitude Azimuth Distance (km) Brightness Sun altitude
Exits shadow 07:46:34 17° 272° (W) 1,062 2.3 -12.5°
Maximum altitude 07:48:52 85° 184° (S) 386 0.5 -12.2°
Drops below altitude 10° 07:52:01 10° 96° (E) 1,397 4.1 -11.8°
Sets 07:54:05 0° 95° (E) 2,250 5.2 -11.5°
